Location: Huberhof
(49.2050°N, 7.4980°E)
Time: 03:54:24
(UTC+00:00)

Cosmos 1709 Rocket - Pass Details

Date: 29 October 2020
Orbit: 949 x 1001 km, 82.9° (Epoch: 25 November)

Event Time Altitude Azimuth Distance (km) Brightness Sun altitude
Rises 18:35:52 0° 349° (N) 3,730 7.3 -23.8°
Reaches altitude 10° 18:38:24 10° 348° (NNW) 2,780 6.6 -24.2°
Maximum altitude 18:44:47 79° 264° (W) 1,026 4.1 -25.2°
Drops below altitude 10° 18:51:09 10° 179° (S) 2,763 6.3 -26.2°
Sets 18:53:39 0° 178° (S) 3,705 6.9 -26.7°
